| time (UTC) | temp C | wind direction | speed KPH | gust KPH | rain 1hr cm | rain 24hr cm | rain mn cm | humidity % | barometer mb |
| 20260505173500 | 13 | 43 | 8.0 | 0.0 | 0.00 | 0.00 | 0.00 | 74 | 1010.6 |
| 20260505170500 | 13 | 112 | 6.4 | 0.0 | 0.00 | 0.00 | 0.00 | 75 | 1010.5 |
| 20260505163500 | 13 | 56 | 3.2 | 0.0 | 0.00 | 0.00 | 0.00 | 74 | 1010.7 |
| 20260505160500 | 13 | 87 | 6.4 | 0.0 | 0.00 | 0.00 | 0.00 | 76 | 1011.0 |
| 20260505150500 | 13 | 74 | 1.6 | 0.0 | 0.00 | 0.00 | 0.00 | 78 | 1011.2 |
| 20260505140500 | 13 | 82 | 4.8 | 0.0 | 0.00 | 0.00 | 0.00 | 80 | 1011.0 |
| 20260505123500 | 13 | 106 | 4.8 | 0.0 | 0.00 | 0.00 | 0.00 | 76 | 1011.4 |
| 20260505120500 | 13 | 56 | 4.8 | 0.0 | 0.00 | 0.00 | 0.00 | 73 | 1011.7 |
| 20260505113500 | 13 | 55 | 4.8 | 0.0 | 0.00 | 0.00 | 0.00 | 74 | 1011.6 |
| 20260505110500 | 12 | 29 | 4.8 | 0.0 | 0.00 | 0.00 | 0.00 | 76 | 1012.1 |
| 20260505100500 | 12 | 16 | 12.9 | 0.0 | 0.00 | 0.00 | 0.00 | 78 | 1012.4 |
| 20260505093500 | 11 | 6 | 4.8 | 0.0 | 0.00 | 0.00 | 0.00 | 79 | 1012.4 |
| 20260505090500 | 10 | 40 | 4.8 | 0.0 | 0.00 | 0.00 | 0.00 | 83 | 1012.3 |
| 20260505083500 | 9 | 56 | 3.2 | 0.0 | 0.00 | 0.00 | 0.00 | 88 | 1012.5 |
| 20260505080500 | 8 | 44 | 6.4 | 0.0 | 0.00 | 0.00 | 0.00 | 90 | 1012.5 |
| 20260505073500 | 8 | 2 | 4.8 | 0.0 | 0.00 | 0.00 | 0.00 | 91 | 1012.8 |
| 20260505070500 | 8 | 52 | 4.8 | 0.0 | 0.00 | 0.00 | 0.00 | 92 | 1012.6 |
| 20260505063500 | 7 | 7 | 9.7 | 0.0 | 0.00 | 0.00 | 0.00 | 92 | 1012.8 |
| 20260505060500 | 7 | 39 | 3.2 | 0.0 | 0.00 | 0.00 | 0.00 | 92 | 1012.7 |
| 20260505053500 | 7 | 58 | 4.8 | 0.0 | 0.00 | 0.00 | 0.00 | 92 | 1012.6 |
| 20260505050500 | 7 | 66 | 4.8 | 0.0 | 0.00 | 0.00 | 0.00 | 92 | 1012.6 |
| 20260505040500 | 7 | 34 | 3.2 | 0.0 | 0.00 | 0.00 | 0.00 | 94 | 1012.5 |
| 20260505033500 | 7 | 31 | 0.0 | 0.0 | 0.00 | 0.00 | 0.00 | 94 | 1012.7 |
| 20260505030500 | 7 | 352 | 1.6 | 0.0 | 0.00 | 0.00 | 0.00 | 94 | 1012.9 |
| 20260505023500 | 7 | 17 | 1.6 | 0.0 | 0.00 | 0.00 | 0.00 | 92 | 1012.9 |
| 20260505020500 | 8 | 15 | 1.6 | 0.0 | 0.00 | 0.00 | 0.00 | 89 | 1013.0 |
| 20260505013500 | 8 | 46 | 4.8 | 0.0 | 0.00 | 0.00 | 0.00 | 87 | 1013.2 |
| 20260505010500 | 8 | 10 | 1.6 | 0.0 | 0.00 | 0.00 | 0.00 | 89 | 1013.4 |
| 20260505003500 | 8 | 349 | 3.2 | 0.0 | 0.00 | 0.00 | 0.00 | 89 | 1013.9 |
| 20260505000502 | 8 | 49 | 0.0 | 0.0 | 0.00 | 0.00 | 0.00 | 88 | 1014.0 |
| 20260504233500 | 8 | 39 | 8.0 | 0.0 | 0.00 | 0.00 | 0.00 | 87 | 1013.8 |
| 20260504230500 | 8 | 15 | 1.6 | 0.0 | 0.00 | 0.00 | 0.00 | 87 | 1013.7 |
| 20260504223500 | 9 | 341 | 3.2 | 0.0 | 0.00 | 0.00 | 0.00 | 88 | 1014.0 |
| 20260504220500 | 9 | 322 | 3.2 | 0.0 | 0.00 | 0.00 | 0.00 | 90 | 1014.2 |
| 20260504213500 | 10 | 341 | 1.6 | 0.0 | 0.00 | 0.00 | 0.00 | 92 | 1014.2 |
| 20260504210500 | 10 | 345 | 0.0 | 0.0 | 0.00 | 0.00 | 0.00 | 91 | 1014.1 |
| 20260504203500 | 10 | 337 | 0.0 | 0.0 | 0.00 | 0.00 | 0.00 | 90 | 1014.2 |
| 20260504200500 | 10 | 338 | 0.0 | 0.0 | 0.00 | 0.00 | 0.00 | 89 | 1014.1 |
| 20260504193500 | 11 | 43 | 1.6 | 0.0 | 0.00 | 0.00 | 0.00 | 86 | 1014.1 |
| 20260504190500 | 12 | 18 | 3.2 | 0.0 | 0.00 | 0.00 | 0.00 | 86 | 1014.1 |
| 20260504183500 | 12 | 344 | 4.8 | 0.0 | 0.00 | 0.00 | 0.00 | 83 | 1014.0 |
| 20260504180500 | 13 | 341 | 3.2 | 0.0 | 0.00 | 0.00 | 0.00 | 81 | 1013.9 |